Weather History for KTTF - February, 2013

Change the Weather History Date:

Saturday, February 23, 2013

  Actual Average Record
Temperature  
Mean Temperature 32 °F -  
Max Temperature 35 °F 40 °F 60 °F (1984)
Min Temperature 28 °F 24 °F -9 °F (2015)
Degree Days  
Heating Degree Days 34    
Moisture  
Dew Point 24 °F    
Average Humidity 72    
Maximum Humidity 93    
Minimum Humidity 60    
Precipitation  
Precipitation 0.00 in - - ()
Sea Level Pressure  
Sea Level Pressure 29.90 in    
Wind  
Wind Speed 10 mph (WSW)    
Max Wind Speed 18 mph    
Max Gust Speed 24 mph    
Visibility 10 miles    
Events      
Averages and records for this station are not official NWS values.
T = Trace of Precipitation, MM = Missing Value Source: NWS Daily Summary

Daily Weather History Graph

Daily Weather History Graph

Search for Another Location

Airport or City:

Trip Planner

Search our weather history database for the weather conditions in past years. The results will help you decide how hot, cold, wet, or windy it might be!

Date:

Astronomy

Feb. 23, 2013 Rise Set
Actual Time 7:17 AM EST 6:17 PM EST
Civil Twilight 6:49 AM EST 6:45 PM EST
Nautical Twilight 6:17 AM EST 7:17 PM EST
Astronomical Twilight 5:44 AM EST 7:49 PM EST
Moon 4:25 PM EST (2/23) 5:40 AM EST (2/23)
Length of Visible Light 11h 55m
Length of Day
10h 59m
Waxing Gibbous, 95% of the Moon is Illuminated
Feb 23
Waxing Gibbous
Feb 25
Full
Mar 4
Last Quarter
Mar 11
New
Mar 19
First Quarter

Hourly Weather History & Observations

Time (EST) Temp. Windchill Dew Point Humidity Pressure Visibility Wind Dir Wind Speed Gust Speed Precip Events Conditions
12:15 AM 35.6 °F 30.7 °F 32.0 °F 87% 29.89 in 10.0 mi SSW 5.8 mph - N/A   Overcast
12:35 AM 35.6 °F 29.9 °F 33.8 °F 93% 29.89 in 10.0 mi SSW 6.9 mph - N/A   Overcast
12:55 AM 35.6 °F 29.9 °F 33.8 °F 93% 29.89 in 10.0 mi SSW 6.9 mph - N/A   Overcast
1:15 AM 35.6 °F 30.7 °F 33.8 °F 93% 29.89 in 10.0 mi SSW 5.8 mph - N/A   Overcast
1:35 AM 35.6 °F 31.7 °F 33.8 °F 93% 29.89 in 7.0 mi WSW 4.6 mph - N/A   Overcast
1:56 AM 35.6 °F 29.2 °F 32.0 °F 87% 29.88 in 10.0 mi SW 8.1 mph - N/A   Overcast
2:11 AM 35.6 °F 30.7 °F 32.0 °F 87% 29.88 in 10.0 mi WSW 5.8 mph - N/A   Overcast
2:31 AM 35.6 °F 29.9 °F 32.0 °F 87% 29.88 in 10.0 mi SW 6.9 mph - N/A   Overcast
2:51 AM 35.6 °F 27.5 °F 30.2 °F 81% 29.88 in 10.0 mi WSW 11.5 mph - N/A   Overcast
3:11 AM 35.6 °F 26.2 °F 30.2 °F 81% 29.88 in 10.0 mi WSW 15.0 mph 18.4 mph N/A   Overcast
3:31 AM 33.8 °F 24.8 °F 28.4 °F 81% 29.88 in 10.0 mi WSW 12.7 mph 20.7 mph N/A   Overcast
3:51 AM 33.8 °F 25.3 °F 28.4 °F 81% 29.88 in 10.0 mi WSW 11.5 mph - N/A   Overcast
4:11 AM 33.8 °F 24.3 °F 28.4 °F 81% 29.88 in 10.0 mi WSW 13.8 mph 17.3 mph N/A   Overcast
4:31 AM 33.8 °F 24.8 °F 28.4 °F 81% 29.88 in 10.0 mi WSW 12.7 mph - N/A   Overcast
4:51 AM 33.8 °F 22.8 °F 26.6 °F 75% 29.88 in 10.0 mi West 18.4 mph 24.2 mph N/A   Overcast
5:12 AM 32.0 °F 21.6 °F 24.8 °F 75% 29.90 in 10.0 mi WSW 15.0 mph 23.0 mph N/A   Overcast
5:32 AM 32.0 °F 20.8 °F 23.0 °F 69% 29.90 in 10.0 mi WSW 17.3 mph - N/A   Overcast
5:52 AM 32.0 °F 23.0 °F 23.0 °F 69% 29.90 in 10.0 mi WSW 11.5 mph - N/A   Overcast
6:12 AM 32.0 °F 22.5 °F 21.2 °F 64% 29.90 in 10.0 mi WSW 12.7 mph 17.3 mph N/A   Overcast
6:32 AM 30.2 °F 20.8 °F 21.2 °F 69% 29.90 in 10.0 mi WSW 11.5 mph 17.3 mph N/A   Overcast
6:52 AM 30.2 °F 20.8 °F 23.0 °F 75% 29.90 in 10.0 mi WSW 11.5 mph - N/A   Overcast
7:12 AM 30.2 °F 21.3 °F 23.0 °F 75% 29.91 in 10.0 mi WSW 10.4 mph - N/A   Overcast
7:32 AM 30.2 °F 20.2 °F 23.0 °F 75% 29.91 in 10.0 mi WSW 12.7 mph 19.6 mph N/A   Overcast
7:52 AM 30.2 °F 21.9 °F 23.0 °F 75% 29.91 in 10.0 mi WSW 9.2 mph - N/A   Overcast
8:12 AM 30.2 °F 21.9 °F 21.2 °F 69% 29.92 in 10.0 mi WSW 9.2 mph - N/A   Overcast
8:33 AM 30.2 °F 21.9 °F 23.0 °F 75% 29.92 in 10.0 mi WSW 9.2 mph - N/A   Overcast
8:53 AM 30.2 °F 20.8 °F 24.8 °F 80% 29.92 in 10.0 mi WSW 11.5 mph 16.1 mph N/A   Overcast
9:13 AM 30.2 °F 19.8 °F 24.8 °F 80% 29.91 in 10.0 mi SW 13.8 mph - N/A   Overcast
9:53 AM 32.0 °F 21.2 °F 24.8 °F 75% 29.91 in 10.0 mi WSW 16.1 mph 20.7 mph N/A   Clear
10:13 AM 32.0 °F 22.1 °F 23.0 °F 69% 29.91 in 10.0 mi WSW 13.8 mph - N/A   Clear
10:33 AM 33.8 °F 23.9 °F 23.0 °F 65% 29.91 in 10.0 mi WSW 15.0 mph - N/A   Clear
10:53 AM 33.8 °F 23.2 °F 21.2 °F 60% 29.90 in 10.0 mi WSW 17.3 mph 20.7 mph N/A   Clear
11:13 AM 33.8 °F 23.2 °F 21.2 °F 60% 29.90 in 10.0 mi WSW 17.3 mph - N/A   Clear
11:33 AM 33.8 °F 23.5 °F 21.2 °F 60% 29.90 in 10.0 mi WSW 16.1 mph - N/A   Clear
11:54 AM 33.8 °F 23.5 °F 21.2 °F 60% 29.90 in 10.0 mi SW 16.1 mph 19.6 mph N/A   Clear
12:14 PM 33.8 °F 23.2 °F 21.2 °F 60% 29.89 in 10.0 mi WSW 17.3 mph 24.2 mph N/A   Scattered Clouds
12:34 PM 33.8 °F 23.5 °F 21.2 °F 60% 29.89 in 10.0 mi WSW 16.1 mph - N/A   Scattered Clouds
12:54 PM 33.8 °F 23.2 °F 21.2 °F 60% 29.90 in 10.0 mi WSW 17.3 mph 21.9 mph N/A   Mostly Cloudy
1:14 PM 33.8 °F 23.2 °F 21.2 °F 60% 29.89 in 10.0 mi WSW 17.3 mph - N/A   Overcast
1:34 PM 33.8 °F 23.9 °F 21.2 °F 60% 29.88 in 10.0 mi WSW 15.0 mph 19.6 mph N/A   Overcast
1:54 PM 33.8 °F 23.9 °F 21.2 °F 60% 29.88 in 10.0 mi WSW 15.0 mph - N/A   Overcast
2:14 PM 33.8 °F 23.9 °F 21.2 °F 60% 29.88 in 10.0 mi SW 15.0 mph - N/A   Overcast
2:34 PM 33.8 °F 24.3 °F 21.2 °F 60% 29.88 in 10.0 mi WSW 13.8 mph - N/A   Overcast
2:54 PM 32.0 °F 21.6 °F 21.2 °F 64% 29.89 in 10.0 mi SW 15.0 mph 19.6 mph N/A   Overcast
3:15 PM 32.0 °F 21.2 °F 21.2 °F 64% 29.88 in 10.0 mi SW 16.1 mph - N/A   Overcast
3:35 PM 32.0 °F 23.0 °F 21.2 °F 64% 29.88 in 10.0 mi WSW 11.5 mph - N/A   Overcast
3:55 PM 32.0 °F 22.1 °F 21.2 °F 64% 29.88 in 10.0 mi WSW 13.8 mph - N/A   Overcast
4:15 PM 32.0 °F 23.0 °F 21.2 °F 64% 29.88 in 10.0 mi West 11.5 mph - N/A   Overcast
4:35 PM 32.0 °F 22.1 °F 21.2 °F 64% 29.88 in 10.0 mi West 13.8 mph 17.3 mph N/A   Overcast
4:55 PM 32.0 °F 23.0 °F 21.2 °F 64% 29.89 in 10.0 mi WSW 11.5 mph - N/A   Overcast
5:15 PM 30.2 °F 20.8 °F 21.2 °F 69% 29.89 in 10.0 mi WSW 11.5 mph - N/A   Overcast
5:35 PM 30.2 °F 20.2 °F 21.2 °F 69% 29.90 in 10.0 mi WSW 12.7 mph - N/A   Overcast
5:55 PM 30.2 °F 21.3 °F 21.2 °F 69% 29.90 in 10.0 mi West 10.4 mph - N/A   Overcast
6:16 PM 30.2 °F 20.8 °F 21.2 °F 69% 29.90 in 10.0 mi WSW 11.5 mph - N/A   Overcast
6:31 PM 30.2 °F 22.6 °F 21.2 °F 69% 29.90 in 10.0 mi WSW 8.1 mph - N/A   Overcast
6:51 PM 30.2 °F 22.6 °F 21.2 °F 69% 29.91 in 10.0 mi West 8.1 mph - N/A   Overcast
7:11 PM 30.2 °F 20.8 °F 21.2 °F 69% 29.91 in 10.0 mi West 11.5 mph - N/A   Overcast
7:31 PM 30.2 °F 20.8 °F 21.2 °F 69% 29.91 in 10.0 mi West 11.5 mph - N/A   Overcast
7:51 PM 30.2 °F 23.4 °F 21.2 °F 69% 29.91 in 10.0 mi West 6.9 mph - N/A   Overcast
8:11 PM 30.2 °F 24.3 °F 21.2 °F 69% 29.91 in 10.0 mi West 5.8 mph - N/A   Overcast
8:31 PM 30.2 °F 23.4 °F 21.2 °F 69% 29.91 in 10.0 mi West 6.9 mph - N/A   Overcast
8:51 PM 30.2 °F 24.3 °F 21.2 °F 69% 29.91 in 10.0 mi West 5.8 mph - N/A   Overcast
9:11 PM 28.4 °F 22.2 °F 21.2 °F 74% 29.91 in 10.0 mi WSW 5.8 mph - N/A   Scattered Clouds
9:32 PM 28.4 °F 23.3 °F 21.2 °F 74% 29.91 in 10.0 mi WSW 4.6 mph - N/A   Clear
9:52 PM 28.4 °F 21.2 °F 21.2 °F 74% 29.91 in 10.0 mi WSW 6.9 mph - N/A   Mostly Cloudy
10:12 PM 28.4 °F 22.2 °F 21.2 °F 74% 29.91 in 10.0 mi SW 5.8 mph - N/A   Overcast
10:32 PM 28.4 °F 23.3 °F 21.2 °F 74% 29.90 in 10.0 mi WSW 4.6 mph - N/A   Overcast
11:12 PM 28.4 °F 19.7 °F 21.2 °F 74% 29.90 in 10.0 mi West 9.2 mph - N/A   Overcast
11:32 PM 28.4 °F 20.4 °F 21.2 °F 74% 29.89 in 10.0 mi West 8.1 mph - N/A   Overcast
11:52 PM 28.4 °F 20.4 °F 21.2 °F 74% 29.89 in 10.0 mi West 8.1 mph - N/A   Overcast